User: anonymous   Login
Location: Unspecified
(0.0000°N, 0.0000°E)
Time: 15:58:46
(UTC+02:00)
Language:

Landsat 4 - Orbit

View from above orbital plane
View from above orbital plane
View from above satellite
View from above satellite

Ground track
Ground track

The orbit data is extracted from the following two-line orbital elements,

1 13367U 82072A   16269.02791213  .00001273  00000-0  71579-4 0  9994
2 13367  98.2165  43.7013 0013995  27.6135 104.9532 15.15324329844861
Epoch (UTC): 25 September 2016 00:40:11
Eccentricity: 0.0013995
inclination: 98.2165°
perigee height: 510 km
apogee height: 529 km
right ascension of ascending node: 43.7013°
argument of perigee: 27.6135°
revolutions per day: 15.15324329
mean anomaly at epoch: 104.9532°
orbit number at epoch: 84486

The dashed part of the orbit path shows where the satellite is in the earth's shadow,  

DLR